2021-002J (47317 NORAD) Tracking and Keplerian Element Data

This shows tracking and keplerian element data for the satellite.

Feedback or suggestion? Click here.




ElementValue
Catalog47317
Name2021-002J
Epoch Orbit1330
Epoch Day105.65080368
Epoch Year2021
RAAN166.6685
Inclination60.6806
Eccentricity0.0031546
Argument of Perigee8.8322
Mean Anonmoly351.3312
Mean Motion15.20585461
Decay Rate1.078E-05
L11 47317U 21002J 21105.65080368 .00001078 00000-0 60579-4 0 9999
L22 47317 60.6806 166.6685 0031546 8.8322 351.3312 15.20585461 13302

Live tracking and technical data element details for 2021-002J (NORAD 47317). 2021-002J can be tracked NOW for your location showing map with azimuth and elevation plus other details from your city location.

Track the satellite on the map from your city or location and see movement details for azimuth, elevation, latitude, longitude, range, height, and movement on the map or in text.







IsCatalogInMostPopularTable: catalog: 47317, numindb: 22
Update: records affected: 1



GetName: 47317 2021-002J

Hit Count: updated at: Fri, 16 Apr 2021 11:08:12 GMT